This demonstration page uses our WeatherBlox Daily Observations layout. Learn more.

Left ArrowRight Arrow

39.01783, -85.05884

Hourly Observations for May 26, 2018

Temp ( °F °C ) Dew Point ( °F °C ) Humidity (%) Winds ( mph kmh ) Pressure ( in mb ) Visibility ( mi km ) Precip ( " mm )
12:52 am 00:52 Mostly Cloudy 70 21.1 59 15 68 68 SSW 6 9 29.85 1011 10 16 0.00 0.00
1:52 am 01:52 Mostly Cloudy 66 18.9 60 15.6 81 81 SSW 5 7 29.84 1011 10 16 0.00 0.00
2:52 am 02:52 Mostly Cloudy 68 20 60 15.6 76 76 SSW 5 7 29.83 1010 10 16 0.00 0.00
3:52 am 03:52 Mostly Clear 68 20 61 16.1 78 78 SSW 5 7 29.82 1010 10 16 0.00 0.00
4:52 am 04:52 Partly Cloudy 69 20.6 60 15.6 73 73 SW 6 9 29.82 1010 10 16 0.00 0.00
5:52 am 05:52 Mostly Cloudy 68 20 61 16.1 78 78 S 5 7 29.82 1010 10 16 0.00 0.00
6:52 am 06:52 Mostly Cloudy 67 19.4 62 16.7 84 84 SSW 7 11 29.84 1010 10 16 0.00 0.00
7:52 am 07:52 Mostly Cloudy 71 21.7 63 17.2 76 76 SSW 7 11 29.85 1011 10 16 0.00 0.00
8:52 am 08:52 Mostly Cloudy 73 22.8 65 18.3 76 76 SSW 8 13 29.86 1011 10 16 0.00 0.00
9:52 am 09:52 Mostly Cloudy 73 22.8 65 18.3 76 76 SW 8 13 29.87 1012 9 14 0.00 0.00
10:52 am 10:52 Mostly Cloudy 76 24.4 67 19.4 74 74 SSW 6 9 29.87 1011 10 16 0.00 0.00
11:52 am 11:52 Mostly Cloudy 79 26.1 67 19.4 67 67 S 8 13 29.85 1011 10 16 0.00 0.00
12:52 pm 12:52 Mostly Cloudy 81 27.2 67 19.4 62 62 S 12 19 29.84 1011 10 16 0.00 0.00
1:52 pm 13:52 Mostly Cloudy 83 28.3 67 19.4 59 59 SSW 9 15 29.82 1010 10 16 0.00 0.00
2:52 pm 14:52 Mostly Cloudy 84 28.9 69 20.6 61 61 S 14 22 29.79 1009 10 16 0.00 0.00
3:46 pm 15:46 Mostly Cloudy with Nearby Thunderstorms 82 28 66 19 58 58 SW 14 22 29.74 1007 10 16 0.00 0.00
3:52 pm 15:52 Mostly Cloudy with Nearby Thunderstorms 82 27.8 67 19.4 60 60 SW 12 19 29.78 1009 10 16 0.00 0.00
4:00 pm 16:00 Mostly Cloudy with Thunderstorms 81 27.2 67 19.4 62 62 SW 20 31 29.77 1008 10 16 0.00 0.00
4:10 pm 16:10 Mostly Cloudy with Strong Thunderstorms 69 20.6 65 18.3 87 87 WNW 33 54 29.80 1009 2 3 0.07 1.78
4:15 pm 16:15 Cloudy with Strong Thunderstorms 68 20 64 17.8 87 87 NW 22 35 29.80 1009 1 2 0.24 6.10
4:22 pm 16:22 Cloudy with Thunderstorms 69 20.6 65 18.3 87 87 VRB 5 7 29.80 1009 1 2 0.38 9.65
4:41 pm 16:41 Partly Cloudy with Light Rain 71 21.7 68 20 90 90 SSE 3 6 29.80 1009 10 16 0.38 9.65
4:52 pm 16:52 Mostly Cloudy with Light Rain 73 22.8 71 21.7 94 94 Calm 29.78 1009 10 16 0.38 9.65
5:52 pm 17:52 Partly Cloudy 80 26.7 70 21.1 71 71 SSW 5 7 29.78 1008 10 16 0.00 0.03
6:52 pm 18:52 Mostly Cloudy with Nearby Thunderstorms 77 25 67 19.4 71 71 S 6 9 29.78 1008 10 16 0.00 0.00
7:15 pm 19:15 Mostly Cloudy with Thunderstorms 76 24.4 67 19.4 74 74 SSW 6 9 29.77 1008 10 16 0.00 0.00
7:33 pm 19:33 Mostly Cloudy 78 25.6 67 19.4 69 69 SW 5 7 29.74 1007 10 16 0.00 0.00
7:52 pm 19:52 Mostly Cloudy 76 24.4 66 18.9 72 72 S 15 24 29.78 1009 10 16 0.00 0.00
8:52 pm 20:52 Mostly Cloudy 73 22.8 66 18.9 79 79 S 8 13 29.80 1009 10 16 0.00 0.00
9:52 pm 21:52 Mostly Cloudy 70 21.1 66 18.9 87 87 S 7 11 29.82 1010 10 16 0.00 0.00
10:52 pm 22:52 Mostly Cloudy 70 21.1 65 18.3 84 84 SSW 9 15 29.83 1010 10 16 0.00 0.00
11:52 pm 23:52 Mostly Cloudy 70 21.1 64 17.8 82 82 SSW 7 11 29.85 1011 10 16 0.00 0.00

Powered by AerisWeather